Regional Weather Roundup
Issued by NWS

Home | Current Version | Previous Version | Graphics & Text | Print | Product List | Glossary On
Versions: 1 2 3 4 5 6 7 8 9 10 11 12 13 14 15 16 17 18 19 20 21 22 23 24 25 26 27 28 29 30 31 32 33 34 35 36 37 38 39 40 41 42 43 44 45 46 47 48 49 50
000
ASUS43 KMKX 040921
RWRWI

WISCONSIN REGIONAL WEATHER ROUNDUP
NATIONAL WEATHER SERVICE MILWAUKEE/SULLIVAN WI
400 AM CDT TUE AUG 04 2015

NOTE: "FAIR" INDICATES FEW OR NO CLOUDS BELOW 12,000 FEET WITH NO
SIGNIFICANT WEATHER AND/OR OBSTRUCTIONS TO VISIBILITY.

WIZ001-002-006>008-014>016-023>028-041000-
NORTHWEST WISCONSIN

CITY           SKY/WX    TMP DP  RH WIND       PRES   REMARKS
SUPERIOR ARPT  CLEAR     49  49  98 SW3       29.91S
ASHLAND        CLEAR     57  52  83 W5        29.90R
HAYWARD        CLEAR     48  46  93 CALM      29.93S
SIREN          CLEAR     52  51  95 CALM      29.94S
CUMBERLAND     CLEAR     50  48  93 CALM      29.94S
RICE LAKE      CLEAR     53  51  94 CALM      29.96R
CHETEK         CLEAR     54  53  97 CALM      29.94S
LADYSMITH      CLEAR     57  53  86 CALM      29.94S
EAU CLAIRE     CLEAR     57  53  86 W3        29.94R
MENOMONIE      CLEAR     58  53  83 W3        29.94F
NEW RICHMOND   CLEAR     53  52  98 CALM      29.96S
OSCEOLA        CLEAR     53  53 100 CALM      29.98S
$$

WIZ003>005-009-010-017-018-041000-
NORTH CENTRAL WISCONSIN

CITY           SKY/WX    TMP DP  RH WIND       PRES   REMARKS
MANITOWISH WTR CLOUDY    53  53 100 W3        29.90S
ARBOR VITAE    PTCLDY    57  55  94 CALM      29.91R
WOODRUFF       PTCLDY    57  55  94 CALM      29.91R
RHINELANDER    CLEAR     56  53  90 W6        29.91R
EAGLE RIVER    CLOUDY    54  54 100 W5        29.90R
LAND O LAKES   MOCLDY    56  56  97 W5        29.90S
PHILLIPS       PTCLDY    54  53  95 CALM      29.91S
TOMAHAWK       PTCLDY    53  52  95 W3        29.92R
MEDFORD        CLEAR     54  52  94 W5        29.93R
MERRILL        NOT AVBL
$$

WIZ029-030-035-036-043>047-041000-
CENTRAL WISCONSIN

CITY           SKY/WX    TMP DP  RH WIND       PRES   REMARKS
WAUSAU         CLEAR     61  55  81 NW6       29.89R
MOSINEE        CLEAR     59  54  82 NW7       29.91S
MARSHFIELD     CLEAR     58  51  78 W7        29.92R
STEVENS POINT  CLEAR     59  53  80 W5        29.91S
WAUPACA        MOCLDY    61  55  81 W3        29.90S
WAUTOMA        CLEAR     55  51  86 VRB3      29.92R
WISC RAPIDS    CLOUDY    60  52  74 W3        29.93R
CAMP DOUGLAS   CLEAR     51  51 100 W5        29.92R
$$

WIZ011>013-019>022-031-037>040-048>050-041000-
NORTHEAST WISCONSIN

CITY           SKY/WX    TMP DP  RH WIND       PRES   REMARKS
ANTIGO         CLEAR     54  53  97 W5        29.90S
SHAWANO        PTCLDY    57  55  91 CALM      29.89S
OCONTO         CLOUDY    56  56 100 CALM      29.87R
STURGEON BAY   CLOUDY    59  54  82 W3        29.89S
GREEN BAY      MOCLDY    58  55  90 W3        29.88S
MANITOWOC      CLEAR     59  55  87 MISG      29.89R
APPLETON       CLOUDY    59  52  77 W7        29.90R
CLINTONVILLE   PTCLDY    55  54  94 CALM      29.89S
OSHKOSH        PTCLDY    61  52  72 W6        29.89R
$$

WIZ032>034-041-042-053>061-041000-
SOUTHWEST WISCONSIN

CITY           SKY/WX    TMP DP  RH WIND       PRES   REMARKS
LA CROSSE      CLEAR     58  55  90 N3        29.93S
SPARTA         CLEAR     49  47  94 CALM      29.94S
VIROQUA        CLEAR     55  53  93 CALM      29.94S
BOSCOBEL       CLEAR     55  53  93 SW3       29.94S
PRAIRIE DU CHI CLEAR     55  52  90 CALM      29.93F
PLATTEVILLE    CLEAR     54  52  93 CALM      29.94S
$$

WIZ056-057-062-063-064-067-068-041000-
SOUTH CENTRAL WISCONSIN

CITY           SKY/WX    TMP DP  RH WIND       PRES   REMARKS
REEDSBURG      CLEAR     55  52  90 CALM      29.92S
BARABOO/DELLS  CLEAR     55  50  82 CALM      29.92S
LONE ROCK      CLEAR     52  50  93 CALM      29.94S
MINERAL POINT  CLEAR     59  54  82 W3        29.94S
MADISON        CLEAR     58  52  80 CALM      29.91S
MIDDLETON      CLEAR     54  51  91 CALM      29.93S
WATERTOWN      CLEAR     54  54 100 CALM      29.91S
MONROE         CLEAR     63  52  67 W8        29.93S
JANESVILLE     CLEAR     57  55  94 CALM      29.93R
$$

WIZ051-052-058>065-066-070>072-041000-
SOUTHEAST WISCONSIN

CITY           SKY/WX    TMP DP  RH WIND       PRES   REMARKS
MILWAUKEE      CLEAR     64  51  62 W6        29.91R
WAUKESHA       CLEAR     55  50  82 CALM      29.93S
MILWAUKEE/TIMM CLEAR     61  50  67 CALM      29.91S
RACINE         CLEAR     61  53  75 W7        29.92S
BURLINGTON     CLEAR     52  51  97 CALM      29.92S
KENOSHA        CLEAR     58  53  84 W5        29.92R
FOND DU LAC    CLEAR     58  52  80 SW7       29.90R
SHEBOYGAN      PTCLDY    56  54  93 W5        29.89S
WEST BEND      PTCLDY    55  52  88 CALM      29.90S
JUNEAU         CLEAR     54  51  90 SW3       29.92S
$$

LSZ147-162-041000-
LAKE SUPERIOR

STATION/POSITION TIME  TEMP    WIND        PRES    WAVE
                       AIR SEA DIR/SP/G            HT/PER
                 (UTC) (F)     (DEG/KT/KT) (MB)    (FT/S)
W MID LAKE BUOY  0850   57 56  310/ 14/ 16 1010.9R   1/ 4
DEVILS ISLAND    0900   56     260/ 11/ 12 1012.2R
PORT WING        0800   60     220/  5/  7 1012.5
SAXON HARBOR     0840   61        CALM     1011.5S
$$

LMZ867-665-643>646-041000-
LAKE MICHIGAN

STATION/POSITION TIME  TEMP    WIND        PRES    WAVE
                       AIR SEA DIR/SP/G            HT/PER
                 (UTC) (F)     (DEG/KT/KT) (MB)    (FT/S)
CHAMBERS ISLAND  0800   63     230/  5/  8 1010.8S
S GREEN BAY BUOY 0900   63 71  260/  8/ 10 1012.9R
N MID LAKE BUOY  0850   64 67  280/ 12/ 14 1009.8R   1/ 3
NORTHPORT PIER   0800   64     300/  7/ 11 1010.5S
SISTER BAY       0818   64     310/ 15/ 17   N/A
ALGOMA LAKESHORE 0812           CALM  /  4   N/A
KEWAUNEE LAKESHO 0800   60     290/  3/  5 1011.0S
SHEBOYGAN LAKESH 0900   63     260/  8/  9 1012.1R
PORT WASHINGTON  0800   63     280/  5/  7 1012.9S
ATWATER BUOY     0900   61 55  260/  6/  6 1013.8R
MILWAUKEE LAKESH 0900   66     290/  5/  7   N/A
KENOSHA   LAKESH 0900   64     280/  9/ 10 1012.5R
$$

TC  - TEMPERATURE IN CELSIUS
VSB - VISIBILITY IN STATUTE MILES
WCI - WIND CHILL INDEX
HX  - HEAT INDEX




USA.gov is the U.S. government's official web portal to all federal, state and local government web resources and services.